Home > Weather > Telfs > Past weeks

Flag for Austria Weather for the Past 2 Weeks in Telfs, Tyrol, Austria

Now
37 °F

Passing clouds.


Feels Like: 34 °F
Forecast: 35 / 61 °F
Wind: 5 mph from West

Location: Innsbruck-Flughafen

Current Time: Apr 29, 2016 at 9:03:26 AM

Latest Report: Apr 29, 2016 at 8:20 AM


Visibility: N/A

Pressure: 30.09 "Hg (27.83 "Hg at 630m altitude)

Humidity: 75%

Dew Point: 30 °F

Location of TelfsLocation

Historic Weather in Telfs — Graph

°F

Telfs Temperature Yesterday

Maximum temperature yesterday: 50 °F (at 2:50 PM)
Minimum temperature yesterday: 28 °F (at 5:50 AM)
Average temperature yesterday: 41 °F

High & Low Weather Summary for the Past Weeks

 TemperatureHumidityPressure
High75 °F (Apr 21, 3:20 PM)100% (Apr 18, 6:50 AM)30.36 "Hg (Apr 18, 6:50 AM)
Low28 °F (Apr 28, 5:50 AM)25% (Apr 21, 3:50 PM)29.56 "Hg (Apr 26, 1:50 PM)
Average48 °F69%29.92 "Hg
* Reported Apr 14 6:20 AM — Apr 29 6:50 AM, Telfs, Weather by CustomWeather, © 2016

Note: Actual official high and low records may vary slightly from our data, if they occured in-between our weather recording intervals... More about our weather records

Advertising

Telfs Weather History for the Previous 24 Hours

Scroll right to see more
 ConditionsComfort  
Time TempWeatherWind HumidityBarometerVisibility
6:50 AM
Fri, Apr 29
32 °FPassing clouds.1 mph87%30.09 "HgN/A
6:20 AM30 °FPassing clouds.2 mph93%30.09 "HgN/A
5:50 AM30 °FPassing clouds.2 mph93%30.09 "HgN/A
5:20 AM32 °FChilly.2 mph87%30.09 "HgN/A
4:20 AM32 °FPassing clouds.2 mph87%30.07 "HgN/A
3:50 AM32 °FChilly.2 mph87%30.07 "HgN/A
2:50 AM32 °FChilly.2 mph87%30.07 "HgN/A
2:20 AM34 °FChilly.1 mph81%30.07 "HgN/A
1:50 AM34 °FChilly.1 mph81%30.07 "HgN/A
1:20 AM34 °FChilly.1 mph81%30.07 "HgN/A
12:50 AM36 °FChilly.2 mph75%30.07 "HgN/A
12:20 AM36 °FChilly.1 mph75%30.07 "HgN/A
11:50 PM
Thu, Apr 28
36 °FChilly.2 mph81%30.04 "HgN/A
10:50 PM39 °FPassing clouds.3 mph70%30.04 "HgN/A
10:20 PM39 °FPassing clouds.2 mph70%30.04 "HgN/A
9:50 PM41 °FPassing clouds.1 mph66%30.04 "HgN/A
9:20 PM43 °FPartly sunny.1 mph61%30.04 "HgN/A
8:50 PM45 °FPartly sunny.6 mph53%30.01 "HgN/A
8:20 PM46 °FScattered clouds.8 mph50%30.01 "HgN/A
7:50 PM46 °FScattered clouds.8 mph50%30.01 "HgN/A
7:20 PM48 °FBroken clouds.6 mph43%29.98 "HgN/A
6:50 PM48 °FBroken clouds.6 mph46%29.98 "HgN/A
6:20 PM48 °FBroken clouds.6 mph43%29.98 "HgN/A
5:50 PM48 °FBroken clouds.6 mph43%29.98 "HgN/A
5:20 PM48 °FBroken clouds.7 mph43%29.95 "HgN/A
4:50 PM50 °FBroken clouds.6 mph40%29.95 "HgN/A
4:20 PM50 °FBroken clouds.5 mph37%29.95 "HgN/A
3:50 PM50 °FBroken clouds.2 mph35%29.95 "HgN/A
2:50 PM50 °FPartly sunny.2 mph40%29.95 "HgN/A
2:20 PM48 °FPartly sunny.5 mph40%29.95 "HgN/A
1:50 PM48 °FPartly sunny.7 mph46%29.95 "HgN/A
1:20 PM48 °FPartly sunny.7 mph40%29.95 "HgN/A
12:50 PM48 °FPartly sunny.3 mph43%29.95 "HgN/A
11:50 AM45 °FBroken clouds.5 mph49%29.98 "HgN/A
11:20 AM43 °FBroken clouds.2 mph57%29.98 "HgN/A
10:50 AM41 °FBroken clouds.2 mph53%30.01 "HgN/A
9:50 AM37 °FPartly sunny.3 mph65%30.01 "HgN/A
9:20 AM37 °FPartly sunny.3 mph65%30.01 "HgN/A
Weather by CustomWeather, © 2016

See weather overviewHow to use our weather pages